Location: Starlight Observatory
(38.4029°N, 85.8936°W)
Time: 04:41:15
(UTC-05:00)

Amateur Radio Satellites - All Passes

Search period start: 23 November 2014 04:11
Search period end: 24 November 2014 04:11
Location: Starlight Observatory, 38.4029°N, 85.8936°W

Satellite Date Start Highest point End Downlink Frequencies (MHz)
Time Altitude Azimuth
Gurwin Techsat 1B 23 Nov 04:11:09 04:16:07 42° 290° (WNW) 04:21:03 435.225
SO-50 23 Nov 04:37:19 04:41:36 46° 116° (ESE) 04:46:01 436.795
MOZHAYETS 4 23 Nov 04:49:43 04:54:15 70° 75° (ENE) 04:58:52
BEESAT 3 23 Nov 05:12:48 05:15:00 14° 44° (NE) 05:17:11 437.485
HORYU 2 23 Nov 05:18:59 05:21:43 16° 295° (WNW) 05:24:27 437.375
SRMSAT 23 Nov 05:24:01 05:26:07 12° 184° (S) 05:28:12 437.500
BEESAT 2 23 Nov 05:25:06 05:27:47 16° 46° (NE) 05:30:28 435.950
AO-7 23 Nov 05:28:33 05:36:56 81° 290° (WNW) 05:45:17 29.400- 29.500
YUBILEINY 23 Nov 05:31:46 05:37:48 20° 295° (WNW) 05:43:51 435.215
STRAND 1 23 Nov 05:34:28 05:37:47 18° 63° (ENE) 05:41:06 437.568
PRISM 23 Nov 05:38:23 05:42:21 44° 72° (ENE) 05:46:23 437.425
JAS-2 23 Nov 05:39:52 05:46:53 53° 98° (E) 05:53:03 435.910
PCSat 23 Nov 05:42:18 05:47:28 43° 56° (ENE) 05:52:35 145.827
AIST 2 23 Nov 05:45:02 05:47:21 14° 44° (NE) 05:49:39 435.215
O/OREOS (USA 219) 23 Nov 06:03:53 06:06:45 17° 100° (E) 06:09:37 437.305
Cubesat XI-IV 23 Nov 06:12:28 06:16:46 25° 95° (E) 06:21:03 437.490
SO-50 23 Nov 06:18:57 06:22:23 21° 314° (NW) 06:25:54 436.795
CUBESAT XI-V 23 Nov 06:21:43 06:26:14 46° 73° (ENE) 06:30:45 437.345
MOZHAYETS 4 23 Nov 06:31:54 06:31:57 10° 271° (W) 06:32:00
BEESAT 3 23 Nov 06:49:30 06:53:40 67° 242° (WSW) 06:57:46 437.485
ISS 23 Nov 06:53:07 06:55:55 25° 29° (NNE) 06:58:44 145.825
CUTE-I 23 Nov 06:54:07 06:59:24 61° 101° (ESE) 07:04:37 437.470
BEESAT 2 23 Nov 07:02:18 07:06:24 53° 243° (WSW) 07:10:27 435.950
STRAND 1 23 Nov 07:11:27 07:16:29 55° 259° (W) 07:21:33 437.568
PRISM 23 Nov 07:15:56 07:18:08 14° 267° (W) 07:20:20 437.425
AIST 1 23 Nov 07:21:08 07:25:14 38° 78° (ENE) 07:29:17
AIST 2 23 Nov 07:22:10 07:26:27 69° 242° (WSW) 07:30:39 435.215
AO-7 23 Nov 07:23:24 07:28:26 18° 309° (NW) 07:33:29 29.400- 29.500
JAS-2 23 Nov 07:25:32 07:31:23 28° 298° (WNW) 07:36:45 435.910
PCSat 23 Nov 07:26:16 07:30:35 25° 253° (WSW) 07:34:53 145.827
GONETS M04 23 Nov 07:29:13 07:34:05 16° 77° (ENE) 07:38:56
O/OREOS (USA 219) 23 Nov 07:41:33 07:45:47 41° 296° (WNW) 07:50:02 437.305
Cubesat XI-IV 23 Nov 07:52:02 07:56:56 38° 291° (WNW) 08:01:48 437.490
CUBESAT XI-V 23 Nov 08:00:56 08:03:53 16° 268° (W) 08:06:51 437.345
ISS 23 Nov 08:29:33 08:32:38 36° 225° (SW) 08:35:42 145.825
CUTE-I 23 Nov 08:35:39 08:38:55 17° 298° (WNW) 08:42:11 437.470
SEEDS 23 Nov 08:42:03 08:44:00 13° 92° (E) 08:45:56 437.485
AIST 1 23 Nov 08:59:53 09:02:31 16° 274° (W) 09:05:09
CANX-2 23 Nov 09:04:02 09:07:49 30° 97° (E) 09:11:35 2200.000
AAUSAT CUBESAT 2 23 Nov 09:04:34 09:07:25 17° 93° (E) 09:10:15 437.432
DOVE 4 23 Nov 09:07:53 09:10:07 14° 93° (E) 09:12:22 437.250
COMPASS 1 23 Nov 09:16:58 09:20:38 28° 96° (E) 09:24:16 437.405
HO-68 23 Nov 09:19:04 09:26:00 49° 101° (E) 09:32:52 435.675
GONETS M04 23 Nov 09:20:44 09:29:32 89° 96° (E) 09:38:26
ANTELSAT 23 Nov 09:25:54 09:27:50 13° 65° (ENE) 09:29:46 437.575/2403.000
DELFI C3 23 Nov 09:26:39 09:28:23 12° 92° (E) 09:30:06 145.870
GOMX 1 23 Nov 09:34:03 09:37:57 39° 98° (E) 09:41:54 467.674
CUTE 1.7 & AOD 2 23 Nov 09:38:45 09:43:03 71° 101° (ESE) 09:47:19 437.475
POPSAT HIP 1 23 Nov 09:46:34 09:49:03 15° 66° (ENE) 09:51:32 437.405
BRITE-PL 23 Nov 09:46:36 09:50:45 80° 102° (ESE) 09:54:56 437.365/2234.400
BUGSAT 1 23 Nov 09:49:41 09:51:52 14° 65° (ENE) 09:54:02 437.445
FUNcube-1 23 Nov 09:51:19 09:52:53 12° 92° (E) 09:54:27 145.935
UKube-1 23 Nov 09:51:53 09:55:31 26° 96° (E) 09:59:07 .
CUBEBUG 2 23 Nov 10:01:10 10:04:29 22° 95° (E) 10:07:50 437.445
Oscar 11 23 Nov 10:05:09 10:09:19 43° 99° (E) 10:13:27 145.826/435.025
CINEMA 3 23 Nov 10:05:36 10:09:33 40° 99° (E) 10:13:36 145.822/145.860
UWE-3 23 Nov 10:07:56 10:11:18 23° 95° (E) 10:14:42 435.000/436.395/437.385
SEEDS 23 Nov 10:15:58 10:20:05 49° 286° (WNW) 10:24:12 437.485
POLYITAN 1 23 Nov 10:16:38 10:20:27 33° 71° (ENE) 10:24:16 437.675
TIGRISAT 23 Nov 10:19:45 10:23:53 50° 74° (ENE) 10:28:01 435.000
QB50P2 23 Nov 10:19:50 10:23:44 36° 72° (ENE) 10:27:38 145.880/145.840
DX 1 23 Nov 10:23:46 10:28:06 63° 102° (ESE) 10:32:23 434.975-435.025
DUCHIFAT 1 23 Nov 10:27:47 10:31:49 43° 73° (ENE) 10:35:52 145.980
UNISAT 6 23 Nov 10:31:30 10:35:46 72° 76° (ENE) 10:40:02 437.425
SHINDAISAT 23 Nov 10:36:09 10:36:33 11° 114° (ESE) 10:36:58 437.305
AAUSAT CUBESAT 2 23 Nov 10:39:20 10:43:11 35° 288° (WNW) 10:47:02 437.432
VELOX 1 23 Nov 10:40:17 10:44:06 28° 96° (E) 10:47:52 145.980
CANX-2 23 Nov 10:40:19 10:43:35 22° 291° (WNW) 10:46:51 2200.000
DOVE 4 23 Nov 10:44:11 10:48:05 41° 287° (WNW) 10:52:04 437.250
NANOSAT C BR1 23 Nov 10:46:26 10:50:41 74° 76° (ENE) 10:54:56 145.865
ZACube-1 23 Nov 10:49:23 10:53:33 59° 101° (E) 10:57:47 437.345
COMPASS 1 23 Nov 10:52:54 10:56:13 23° 291° (WNW) 10:59:33 437.405
QB50P1 23 Nov 10:55:52 11:00:09 86° 257° (WSW) 11:04:26 145.935-145.965
HUMSAT D 23 Nov 10:55:59 10:59:55 40° 99° (E) 11:03:53 437.325/437.525
DELFI C3 23 Nov 10:59:57 11:03:56 47° 286° (WNW) 11:07:54 145.870
ANTELSAT 23 Nov 11:00:00 11:04:11 52° 260° (W) 11:08:22 437.575/2403.000
AISAT 23 Nov 11:04:12 11:08:33 53° 100° (E) 11:12:51 437.250
50 SAT 23 Nov 11:05:24 11:09:17 43° 99° (E) 11:13:10 437.505
HO-68 23 Nov 11:07:18 11:13:23 31° 298° (WNW) 11:19:26 435.675
GOMX 1 23 Nov 11:13:21 11:15:47 15° 293° (WNW) 11:18:14 467.674
POPSAT HIP 1 23 Nov 11:20:31 11:24:35 43° 261° (W) 11:28:40 437.405
GONETS M04 23 Nov 11:22:02 11:27:35 18° 296° (WNW) 11:33:12
BUGSAT 1 23 Nov 11:22:47 11:26:56 49° 260° (W) 11:31:05 437.445
FUNcube-1 23 Nov 11:25:25 11:29:30 52° 286° (WNW) 11:33:39 145.935
UKube-1 23 Nov 11:28:01 11:31:35 25° 292° (WNW) 11:35:08 .
CUBEBUG 1 23 Nov 11:28:52 11:32:51 34° 97° (E) 11:36:47 437.445
CUBEBUG 2 23 Nov 11:37:34 11:41:10 28° 289° (WNW) 11:44:49 437.445
Oscar 11 23 Nov 11:42:29 11:45:07 16° 294° (WNW) 11:47:45 145.826/435.025
CINEMA 3 23 Nov 11:43:56 11:46:29 16° 293° (WNW) 11:49:03 145.822/145.860
UWE-3 23 Nov 11:44:15 11:47:48 27° 290° (WNW) 11:51:26 435.000/436.395/437.385
POLYITAN 1 23 Nov 11:53:25 11:56:28 19° 266° (W) 11:59:31 437.675
QB50P2 23 Nov 11:56:54 11:59:46 17° 266° (W) 12:02:38 145.880/145.840
TIGRISAT 23 Nov 11:59:14 12:00:56 12° 268° (W) 12:02:37 435.000
DX 1 23 Nov 12:02:18 12:03:47 12° 297° (WNW) 12:05:16 434.975-435.025
ESTCUBE 1 23 Nov 12:03:57 12:08:31 90° 295° (WNW) 12:13:02 437.505/2401.250
DUCHIFAT 1 23 Nov 12:05:33 12:07:54 14° 267° (W) 12:10:14 145.980
VELOX 1 23 Nov 12:16:59 12:20:34 24° 292° (WNW) 12:24:07 145.980
ZACube-1 23 Nov 12:28:05 12:29:27 11° 296° (WNW) 12:30:49 437.345
HUMSAT D 23 Nov 12:32:57 12:35:25 15° 293° (WNW) 12:37:52 437.325/437.525
50 SAT 23 Nov 12:42:07 12:44:14 14° 294° (WNW) 12:46:22 437.505
AISAT 23 Nov 12:42:30 12:44:42 14° 296° (WNW) 12:46:54 437.250
Oscar 19 23 Nov 12:49:55 12:54:34 36° 70° (ENE) 12:59:13 437.125/150
TISAT 1 23 Nov 13:04:26 13:08:39 77° 284° (WNW) 13:12:50 437.305
SPROUT 23 Nov 13:04:50 13:09:08 88° 283° (WNW) 13:13:24 437.525
CUBEBUG 1 23 Nov 13:05:49 13:08:59 20° 293° (WNW) 13:12:08 437.445
SO-50 23 Nov 13:10:12 13:14:33 31° 51° (NE) 13:18:55 436.795
BEESAT 23 Nov 13:12:54 13:16:06 18° 93° (E) 13:19:16 436.000
AUBIESAT-1 23 Nov 13:21:16 13:25:29 28° 100° (E) 13:29:37 437.475
M-CUBED/EXP-1 PRIME 23 Nov 13:24:12 13:28:39 33° 101° (E) 13:33:00 437.505
ITAMSAT 1 23 Nov 13:36:10 13:41:00 40° 70° (ENE) 13:45:50 435.822/435.867
YUBILEINY 23 Nov 13:43:44 13:51:41 38° 73° (ENE) 13:59:32 435.215
Gurwin Techsat 1B 23 Nov 13:51:27 13:56:04 31° 68° (ENE) 14:00:42 435.225
ITUPSAT 1 23 Nov 14:05:31 14:10:18 62° 101° (ESE) 14:15:01 437.325
CUSAT 1 23 Nov 14:07:08 14:09:59 51° 280° (W) 14:12:34 437.405
SWISSCUBE 23 Nov 14:17:37 14:22:27 88° 283° (WNW) 14:27:14 437.505
DANDE 23 Nov 14:20:07 14:23:03 41° 280° (W) 14:25:37 436.750
KKS-1 23 Nov 14:26:40 14:29:59 20° 95° (E) 14:33:17 437.445
Oscar 19 23 Nov 14:29:51 14:33:57 24° 265° (W) 14:38:04 437.125/150
AO-7 23 Nov 14:35:19 14:41:48 27° 57° (ENE) 14:48:18 29.400- 29.500
HORYU 2 23 Nov 14:38:30 14:42:32 36° 71° (ENE) 14:46:35 437.375
BEESAT 23 Nov 14:49:35 14:54:08 45° 288° (WNW) 14:58:40 436.000
SO-50 23 Nov 14:50:45 14:55:04 32° 247° (WSW) 14:59:23 436.795
AUBIESAT-1 23 Nov 14:56:02 15:00:24 33° 295° (WNW) 15:04:42 437.475
M-CUBED/EXP-1 PRIME 23 Nov 14:59:20 15:03:31 28° 296° (WNW) 15:07:40 437.505
ITAMSAT 1 23 Nov 15:16:29 15:20:35 23° 265° (W) 15:24:41 435.822/435.867
STARS 23 Nov 15:27:43 15:32:05 67° 102° (ESE) 15:36:27 437.465
Gurwin Techsat 1B 23 Nov 15:31:20 15:35:57 30° 264° (W) 15:40:37 435.225
MaSat-1 23 Nov 15:33:40 15:36:01 20° 109° (ESE) 15:38:13 437.345
YUBILEINY 23 Nov 15:40:26 15:48:30 44° 272° (W) 15:56:32 435.215
PHONESAT 2.4 23 Nov 15:40:40 15:43:37 22° 148° (SSE) 15:46:34 2401.200-2431.200
ITUPSAT 1 23 Nov 15:45:11 15:47:38 14° 297° (WNW) 15:50:04 437.325
JAS-2 23 Nov 15:49:48 15:55:36 24° 60° (ENE) 16:01:32 435.910
RS-15 23 Nov 15:50:45 16:00:05 34° 106° (ESE) 16:09:18 29.354- 29.394
KKS-1 23 Nov 16:02:42 16:06:40 33° 290° (WNW) 16:10:38 437.445
VERMONT LUNAR 23 Nov 16:02:47 16:06:13 42° 155° (SSE) 16:09:40 437.305
O/OREOS (USA 219) 23 Nov 16:13:55 16:17:41 26° 61° (ENE) 16:21:27 437.305
HORYU 2 23 Nov 16:16:11 16:19:18 19° 266° (W) 16:22:27 437.375
AO-7 23 Nov 16:25:38 16:33:51 70° 255° (WSW) 16:42:10 29.400- 29.500
CUTE-I 23 Nov 16:39:19 16:40:39 11° 59° (ENE) 16:41:59 437.470
MOZHAYETS 4 23 Nov 16:47:32 16:50:51 19° 93° (E) 16:54:08
STARS 23 Nov 17:06:48 17:07:59 11° 297° (WNW) 17:09:11 437.465
MaSat-1 23 Nov 17:08:45 17:10:34 15° 300° (WNW) 17:12:18 437.345
PHONESAT 2.4 23 Nov 17:18:24 17:22:07 83° 163° (SSE) 17:25:51 2401.200-2431.200
JAS-2 23 Nov 17:32:21 17:39:47 73° 258° (WSW) 17:47:41 435.910
Cubesat XI-IV 23 Nov 17:32:55 17:37:46 36° 69° (ENE) 17:42:38 437.490
VERMONT LUNAR 23 Nov 17:41:02 17:44:39 70° 351° (N) 17:48:17 437.305
O/OREOS (USA 219) 23 Nov 17:53:15 17:57:00 27° 257° (WSW) 18:00:45 437.305
RS-15 23 Nov 18:00:47 18:11:39 64° 306° (NW) 18:22:32 29.354- 29.394
CUTE-I 23 Nov 18:14:30 18:19:52 86° 75° (ENE) 18:25:15 437.470
CUBESAT XI-V 23 Nov 18:22:04 18:24:13 13° 91° (E) 18:26:22 437.345
MOZHAYETS 4 23 Nov 18:23:52 18:28:12 39° 288° (WNW) 18:32:30
AO-7 23 Nov 18:26:19 18:27:58 11° 272° (W) 18:29:36 29.400- 29.500
PHONESAT 2.4 23 Nov 18:57:23 19:01:04 60° 0° (N) 19:04:45 2401.200-2431.200
PRISM 23 Nov 18:58:25 19:02:41 86° 284° (WNW) 19:06:54 437.425
Cubesat XI-IV 23 Nov 19:13:23 19:17:52 27° 264° (W) 19:22:23 437.490
VERMONT LUNAR 23 Nov 19:19:43 19:23:20 66° 8° (N) 19:26:57 437.305
JAS-2 23 Nov 19:23:29 19:26:01 12° 276° (W) 19:28:35 435.910
STRAND 1 23 Nov 19:23:31 19:28:33 56° 101° (E) 19:33:32 437.568
GONETS M04 23 Nov 19:33:17 19:41:34 42° 75° (ENE) 19:49:44
SHINDAISAT 23 Nov 19:45:40 19:46:48 16° 55° (NE) 19:47:55 437.305
HO-68 23 Nov 19:46:26 19:52:38 33° 63° (ENE) 19:58:50 435.675
AIST 1 23 Nov 19:49:40 19:53:14 25° 89° (E) 19:56:50
CANX-2 23 Nov 19:56:45 19:59:42 19° 67° (ENE) 20:02:38 2200.000
AAUSAT CUBESAT 2 23 Nov 19:57:02 19:57:53 11° 64° (ENE) 19:58:44 437.432
CUBESAT XI-V 23 Nov 19:57:25 20:02:00 56° 286° (WNW) 20:06:32 437.345
CUTE-I 23 Nov 19:59:55 20:00:33 10° 271° (W) 20:01:11 437.470
COMPASS 1 23 Nov 20:08:28 20:11:08 17° 67° (ENE) 20:13:49 437.405
DOVE 4 23 Nov 20:12:49 20:15:25 15° 66° (ENE) 20:17:56 437.250
RS-15 23 Nov 20:18:49 20:26:45 22° 335° (NNW) 20:34:48 29.354- 29.394
PCSat 23 Nov 20:22:19 20:27:33 53° 113° (ESE) 20:32:49 145.827
CUTE 1.7 & AOD 2 23 Nov 20:30:36 20:34:32 41° 73° (ENE) 20:38:30 437.475
PHONESAT 2.4 23 Nov 20:36:16 20:40:00 81° 198° (SSW) 20:43:42 2401.200-2431.200
GOMX 1 23 Nov 20:40:37 20:45:11 40° 73° (ENE) 20:49:28 467.674
BEESAT 3 23 Nov 20:43:24 20:47:04 33° 114° (ESE) 20:50:49 437.485
UKube-1 23 Nov 20:46:18 20:49:27 20° 67° (ENE) 20:52:37 .
BRITE-PL 23 Nov 20:55:21 21:00:32 81° 76° (ENE) 21:05:20 437.365/2234.400
BEESAT 2 23 Nov 20:56:27 21:00:19 42° 115° (ESE) 21:04:16 435.950
VERMONT LUNAR 23 Nov 20:58:18 21:01:48 47° 204° (SSW) 21:05:18 437.305
Oscar 11 23 Nov 20:58:59 21:02:39 28° 70° (ENE) 21:06:20 145.826/435.025
CUBEBUG 2 23 Nov 20:59:21 21:02:04 17° 67° (ENE) 21:04:45 437.445
STRAND 1 23 Nov 21:04:04 21:07:15 17° 297° (WNW) 21:10:26 437.568
UWE-3 23 Nov 21:05:04 21:07:45 17° 67° (ENE) 21:10:24 435.000/436.395/437.385
CINEMA 3 23 Nov 21:06:28 21:10:25 32° 72° (ENE) 21:14:15 145.822/145.860
SEEDS 23 Nov 21:06:42 21:10:53 85° 258° (WSW) 21:15:07 437.485
DX 1 23 Nov 21:18:02 21:22:12 45° 72° (ENE) 21:26:24 434.975-435.025
AIST 2 23 Nov 21:19:24 21:23:15 36° 114° (ESE) 21:27:11 435.215
AIST 1 23 Nov 21:27:11 21:30:48 25° 285° (WNW) 21:34:26
AAUSAT CUBESAT 2 23 Nov 21:28:54 21:33:00 62° 259° (W) 21:37:09 437.432
GONETS M04 23 Nov 21:30:16 21:38:15 40° 273° (W) 21:46:12
CANX-2 23 Nov 21:31:34 21:35:23 33° 263° (W) 21:39:14 2200.000
HO-68 23 Nov 21:33:12 21:40:03 47° 260° (W) 21:46:57 435.675
VELOX 1 23 Nov 21:37:19 21:40:47 23° 68° (ENE) 21:44:16 145.980
COMPASS 1 23 Nov 21:42:43 21:46:34 37° 262° (W) 21:50:28 437.405
ZACube-1 23 Nov 21:44:30 21:48:26 38° 72° (ENE) 21:52:20 437.345
DELFI C3 23 Nov 21:47:04 21:51:07 87° 77° (ENE) 21:55:14 145.870
HUMSAT D 23 Nov 21:47:35 21:50:58 25° 70° (ENE) 21:54:20 437.325/437.525
DOVE 4 23 Nov 21:48:14 21:52:50 51° 260° (W) 21:57:12 437.250
50 SAT 23 Nov 21:53:40 21:56:53 23° 70° (ENE) 22:00:07 437.505
AISAT 23 Nov 22:01:06 22:05:18 41° 72° (ENE) 22:09:31 437.250
PCSat 23 Nov 22:07:03 22:11:16 23° 311° (NW) 22:15:30 145.827
CUTE 1.7 & AOD 2 23 Nov 22:08:15 22:10:39 15° 268° (W) 22:13:04 437.475
TIGRISAT 23 Nov 22:14:59 22:16:41 12° 92° (E) 22:18:24 435.000
PHONESAT 2.4 23 Nov 22:15:36 22:18:29 22° 212° (SSW) 22:21:22 2401.200-2431.200
GOMX 1 23 Nov 22:19:55 22:23:22 19° 265° (W) 22:26:42 467.674
FUNcube-1 23 Nov 22:19:56 22:24:11 81° 258° (WSW) 22:28:23 145.935
UKube-1 23 Nov 22:21:24 22:25:23 34° 262° (W) 22:29:22 .
BEESAT 3 23 Nov 22:22:05 22:25:21 22° 311° (NW) 22:28:40 437.485
CUBEBUG 1 23 Nov 22:24:11 22:27:50 25° 69° (ENE) 22:31:28 437.445
UNISAT 6 23 Nov 22:26:08 22:29:02 17° 94° (E) 22:31:58 437.425
CUBEBUG 2 23 Nov 22:34:27 22:38:29 38° 262° (W) 22:42:27 437.445
NANOSAT C BR1 23 Nov 22:35:17 22:37:19 13° 92° (E) 22:39:21 145.865
Oscar 11 23 Nov 22:35:25 22:38:48 22° 265° (W) 22:42:12 145.826/435.025
BEESAT 2 23 Nov 22:35:50 22:38:48 19° 313° (NW) 22:41:49 435.950
RS-15 23 Nov 22:38:28 22:45:10 17° 12° (NNE) 22:51:57 29.354- 29.394
VERMONT LUNAR 23 Nov 22:39:16 22:39:44 10° 218° (SW) 22:40:12 437.305
UWE-3 23 Nov 22:40:00 22:44:00 38° 262° (W) 22:47:57 435.000/436.395/437.385
QB50P1 23 Nov 22:44:10 22:46:57 17° 94° (E) 22:49:44 145.935-145.965
CINEMA 3 23 Nov 22:44:22 22:47:40 20° 265° (W) 22:50:53 145.822/145.860
ANTELSAT 23 Nov 22:53:38 22:57:41 34° 98° (E) 23:01:49 437.575/2403.000
DX 1 23 Nov 22:56:11 22:58:40 15° 267° (W) 23:01:08 434.975-435.025
AIST 2 23 Nov 22:58:39 23:01:59 22° 311° (NW) 23:05:22 435.215
ESTCUBE 1 23 Nov 23:02:08 23:06:39 70° 75° (ENE) 23:11:12 437.505/2401.250
BUGSAT 1 23 Nov 23:07:35 23:10:59 25° 96° (E) 23:14:21 437.445
POPSAT HIP 1 23 Nov 23:07:48 23:11:36 32° 97° (E) 23:15:22 437.405
VELOX 1 23 Nov 23:13:12 23:17:11 31° 263° (W) 23:21:12 145.980
ZACube-1 23 Nov 23:22:23 23:24:57 16° 267° (W) 23:27:31 437.345
HUMSAT D 23 Nov 23:23:20 23:26:42 24° 264° (W) 23:30:04 437.325/437.525
50 SAT 23 Nov 23:28:50 23:32:07 24° 264° (W) 23:35:25 437.505
ISS 23 Nov 23:34:52 23:36:46 15° 129° (SE) 23:38:41 145.825
AISAT 23 Nov 23:39:11 23:42:06 17° 267° (W) 23:45:01 437.250
POLYITAN 1 23 Nov 23:39:29 23:43:43 79° 103° (ESE) 23:47:56 437.675
QB50P2 23 Nov 23:42:32 23:46:47 86° 103° (ESE) 23:51:00 145.880/145.840
TIGRISAT 23 Nov 23:49:25 23:53:44 56° 286° (WNW) 23:58:08 435.000
DUCHIFAT 1 23 Nov 23:50:15 23:54:29 79° 284° (WNW) 23:58:40 145.980
TISAT 1 23 Nov 23:55:29 23:59:43 65° 75° (ENE) 00:03:58 437.305
SPROUT 23 Nov 23:57:34 00:01:48 58° 74° (ENE) 00:06:04 437.525
CUBEBUG 1 24 Nov 00:00:17 00:04:05 27° 264° (W) 00:07:54 437.445
UNISAT 6 24 Nov 00:01:49 00:05:58 40° 288° (WNW) 00:10:11 437.425
NANOSAT C BR1 24 Nov 00:09:24 00:13:27 46° 287° (WNW) 00:17:28 145.865
AUBIESAT-1 24 Nov 00:09:55 00:13:14 26° 63° (ENE) 00:16:48 437.475
M-CUBED/EXP-1 PRIME 24 Nov 00:13:11 00:16:40 30° 64° (ENE) 00:20:27 437.505
BEESAT 24 Nov 00:18:33 00:21:47 18° 65° (ENE) 00:25:01 436.000
QB50P1 24 Nov 00:19:06 00:22:58 35° 288° (WNW) 00:26:48 145.935-145.965
ANTELSAT 24 Nov 00:31:00 00:34:17 21° 292° (WNW) 00:37:37 437.575/2403.000
BUGSAT 1 24 Nov 00:43:09 00:46:22 23° 291° (WNW) 00:49:33 437.445
POPSAT HIP 1 24 Nov 00:44:15 00:47:17 20° 292° (WNW) 00:50:19 437.405
CUSAT 1 24 Nov 00:44:33 00:49:03 77° 81° (E) 00:55:11 437.405
RS-15 24 Nov 00:51:30 01:01:54 41° 44° (NE) 01:12:37 29.354- 29.394
DANDE 24 Nov 00:59:44 01:04:06 90° 252° (WSW) 01:10:04 436.750
Oscar 19 24 Nov 01:04:20 01:07:04 14° 91° (E) 01:09:47 437.125/150
ISS 24 Nov 01:09:53 01:13:06 51° 324° (NW) 01:16:20 145.825
ITUPSAT 1 24 Nov 01:10:55 01:15:38 61° 74° (ENE) 01:20:24 437.325
MaSat-1 24 Nov 01:13:53 01:15:30 17° 60° (ENE) 01:17:09 437.345
SWISSCUBE 24 Nov 01:22:45 01:27:33 89° 76° (ENE) 01:32:24 437.505
KKS-1 24 Nov 01:24:25 01:27:15 17° 66° (ENE) 01:30:05 437.445
JUGNU 24 Nov 01:29:11 01:30:29 11° 172° (S) 01:31:46 437.505
SPROUT 24 Nov 01:37:05 01:38:14 11° 269° (W) 01:39:24 437.525
AUBIESAT-1 24 Nov 01:44:56 01:48:10 24° 261° (W) 01:51:40 437.475
M-CUBED/EXP-1 PRIME 24 Nov 01:48:51 01:51:47 20° 262° (W) 01:54:57 437.505
ITAMSAT 1 24 Nov 01:51:50 01:54:52 16° 92° (E) 01:57:53 435.822/435.867
BEESAT 24 Nov 01:54:40 01:59:15 46° 261° (W) 02:03:52 436.000
Gurwin Techsat 1B 24 Nov 02:10:34 02:13:07 14° 91° (E) 02:15:40 435.225
STARS 24 Nov 02:23:32 02:27:46 49° 73° (ENE) 02:32:01 437.465
CUSAT 1 24 Nov 02:31:15 02:32:07 10° 269° (W) 02:33:00 437.405
Oscar 19 24 Nov 02:41:41 02:46:47 62° 287° (WNW) 02:51:52 437.125/150
YUBILEINY 24 Nov 02:42:29 02:50:42 46° 88° (E) 02:58:53 435.215
ISS 24 Nov 02:48:53 02:50:22 12° 343° (NNW) 02:51:51 145.825
ITUPSAT 1 24 Nov 02:51:43 02:53:54 13° 269° (W) 02:56:05 437.325
KKS-1 24 Nov 02:59:18 03:03:32 43° 261° (W) 03:07:48 437.445
RS-15 24 Nov 03:03:47 03:14:49 63° 247° (WSW) 03:26:21 29.354- 29.394
JUGNU 24 Nov 03:16:25 03:18:36 12° 183° (S) 03:20:47 437.505
SRMSAT 24 Nov 03:23:00 03:25:00 12° 175° (S) 03:26:59 437.500
SO-50 24 Nov 03:26:27 03:28:08 12° 107° (ESE) 03:29:50 436.795
ITAMSAT 1 24 Nov 03:29:37 03:34:42 57° 287° (WNW) 03:39:45 435.822/435.867
Gurwin Techsat 1B 24 Nov 03:48:15 03:53:32 68° 286° (WNW) 03:58:47 435.225
MOZHAYETS 4 24 Nov 03:49:05 03:51:50 16° 65° (ENE) 03:54:35
STARS 24 Nov 04:02:17 04:04:31 14° 268° (W) 04:06:45 437.465
